Regional Weather Roundup
Issued by NWS

Home | Current Version | Previous Version | Graphics & Text | Print | Product List | Glossary On
Versions: 1 2 3 4 5 6 7 8 9 10 11 12 13 14 15 16 17 18 19 20 21 22 23 24 25 26 27 28 29 30 31 32 33 34 35 36 37 38 39 40 41 42 43 44 45 46 47 48 49 50
000
ASUS43 KMPX 202110
RWRMN
WEATHER ROUNDUP FOR MINNESOTA
NATIONAL WEATHER SERVICE TWIN CITIES/CHANHASSEN MN
400 PM CDT SAT SEP 20 2014


NOTE: "FAIR" INDICATES FEW OR NO CLOUDS BELOW 12,000 FEET WITH NO
SIGNIFICANT WEATHER AND/OR OBSTRUCTIONS TO VISIBILITY. N/A MEANS
CURRENT SKY AND/OR WEATHER CONDITIONS ARE NOT AVAILABLE.

MNZ060>063-068>070-202200-
   Twin Cities Metro

CITY           SKY/WX    TMP DP  RH WIND       PRES   REMARKS
TWIN CITIES    MOSUNNY   77  54  44 W14       29.74F
ST PAUL        MOSUNNY   76  54  46 NW15      29.74F
CRYSTAL        MOSUNNY   77  54  44 W12       29.73F
BLAINE         MOSUNNY   77  55  47 W13G20    29.74F
LAKEVILLE      SUNNY     75  55  50 W10       29.76F
EDEN PRAIRIE   SUNNY     78  54  43 W12       29.74F
SOUTH ST PAUL  SUNNY     77  52  41 W13       29.74F
LAKE ELMO      FAIR      72  55  56 NW9G20    29.75F
$$
MNZ001>005-007-008-013>017-022>024-027-028-202200-
   Northwest Minnesota

CITY           SKY/WX    TMP DP  RH WIND       PRES   REMARKS
BEMIDJI        RAIN      53  52  95 W9        29.72F
HALLOCK          N/A     59  54  82 NW18G35   29.78R
ROSEAU         HVY RAIN  55  50  82 CALM      29.72R
WARROAD        DRIZZLE   55  52  88 W5        29.73R
THIEF RVR FALL CLOUDY    57  52  82 NW22G31   29.75R
CROOKSTON      CLOUDY    61  54  77 NW28      29.80R
FOSSTON        LGT RAIN  54  54 100 W17G25    29.77R
DETROIT LAKES  CLOUDY    59  54  82 NW20G30   29.81S
MOORHEAD       MOSUNNY   64  57  77 NW23G29   29.84R
PARK RAPIDS    LGT RAIN  55  52  89 W12       29.76F
MAHNOMEN       CLOUDY    57  54  91 NW20G26   29.79R
$$
MNZ006-009>011-018-025>026-202200-
   North Central Minnesota

CITY           SKY/WX    TMP DP  RH WIND       PRES   REMARKS
BAUDETTE       CLOUDY    58  50  75 N10       29.70R
FLAG ISLAND    CLOUDY    55  46  71 N5        29.71R
INTL FALLS     PTSUNNY   60  47  61 CALM      29.70S
WASKISH        CLOUDY    61  54  77 CALM      29.68F
BIG FORK       PTSUNNY   64  50  59 SW6       29.70F
LONGVILLE      TSTM      63  57  82 CALM      29.71F
GRAND RAPIDS   MOSUNNY   64  52  63 W7        29.72S
CRANE LAKE     PTSUNNY   55  52  88 CALM      29.72F
ORR            MOSUNNY   61  45  55 CALM      29.68S
COOK           MOSUNNY   63  46  55 CALM      29.70F
WALKER         RAIN      54  52  93 W10G17    29.73R
$$
MNZ012-019>021-037-202200-
   Northeast Minnesota

CITY           SKY/WX    TMP DP  RH WIND       PRES   REMARKS
DULUTH         PTSUNNY   69  47  45 W12G18    29.71S
ELY            MOSUNNY   57  50  77 CALM      29.71F
HIBBING        PTSUNNY   67  48  50 W8        29.71S
EVELETH        MOSUNNY   64  45  48 W9        29.72S
DULUTH HARBOR  PTSUNNY   70  54  56 W8        29.70S
TWO HARBORS    SUNNY     66  45  45 CALM      29.68F
SILVER BAY     MOSUNNY   63  55  77 N9        29.67F
GRAND MARAIS     N/A     68  52  56 VRB3      29.64F
G MARAIS ARPRT PTSUNNY   59  48  67 NW6       29.69F
$$
MNZ029>031-032-039>041-046>048-054>057-064-202200-
   West Central Minnesota

CITY           SKY/WX    TMP DP  RH WIND       PRES   REMARKS
FERGUS FALLS   CLOUDY    63  54  72 NW23G35   29.82S
WHEATON        CLOUDY    61  57  88 NW13      29.85S
MORRIS         LGT RAIN  59  57  94 NW21      29.82R
ALEXANDRIA     RAIN      58  58 100 NW10      29.82F FOG
ELBOW LAKE     LGT RAIN  59  56  92 NW9G17    29.81F
WADENA         LGT RAIN  55  54  94 NW13      29.79S
GLENWOOD       LGT RAIN  57  55  94 NW9       29.82R
APPLETON       TSTM      63  55  77 N25G33    29.81R
BENSON         LGT RAIN  57  57 100 N17G25    29.81R
ORTONVILLE     TSTM      61  55  82 N17       29.84R
MADISON        RAIN      75  61  60 W26G36    29.78R
WILLMAR        TSTM      70  57  64 NW33G45   29.81R
$$
MNZ033>034-036-042>043-049>051-058-059-202200-
   Central Minnesota

CITY           SKY/WX    TMP DP  RH WIND       PRES   REMARKS
ST CLOUD       MOSUNNY   74  54  49 W8        29.75S
SAUK CENTRE    HVY RAIN  59  55  87 NW20G36   29.82R
PAYNESVILLE    RAIN      67  56  67 SW3       29.76F
AITKIN         MOSUNNY   68  57  68 CALM      29.72F
PINE RIVER     RAIN      63  55  77 W20G31    29.81R
BRAINERD       PTSUNNY   66  56  70 W7        29.75S
STAPLES        TSTM      55  54  94 NW16G24   29.79R
LONG PRAIRIE   RAIN      59  54  82 SW16G38   29.82R
LITTLE FALLS   PTSUNNY   68  52  56 W5        29.76S
LITCHFIELD     SUNNY     73  55  53 W6        29.75F
BUFFALO        SUNNY     73  52  47 SW8       29.76S
MAPLE LAKE     SUNNY     73  56  54 W8        29.75F
$$
MNZ037-044-045-052-053-202200-
   East Central Minnesota

CITY           SKY/WX    TMP DP  RH WIND       PRES   REMARKS
PRINCETON      MOSUNNY   73  55  53 W9        29.74F
MORA           PTSUNNY   68  54  60 W14G20    29.76S
CAMBRIDGE      MOSUNNY   73  57  56 W6        29.72F
RUSH CITY      MOSUNNY   72  56  57 NW3       29.74F
MOOSE LAKE     MOSUNNY   70  50  49 CALM      29.71S
HINCKLEY       MOCLDY    70  55  60 W12G18    29.74F
CLOQUET        PTSUNNY   66  48  52 W9        29.71F
MCGREGOR       MOSUNNY   66  54  63 W10       29.74R
$$
MNZ071>073-080-081-089-090-097-098-202200-
   Southwest Minnesota

CITY           SKY/WX    TMP DP  RH WIND       PRES   REMARKS
MONTEVIDEO     MOSUNNY   75  66  73 NW8       29.76F
GRANITE FALLS  MOSUNNY   73  61  65 W13G18    29.77S
CANBY          HVY RAIN  74  58  56 NW23G30   29.79S
MARSHALL       SUNNY     81  54  39 W23G32    29.77F
REDWOOD FALLS  PTSUNNY   80  53  39 W23G29    29.75F
OLIVIA         MOSUNNY   75  54  46 W10       29.74F
PIPESTONE      MOSUNNY   79  54  41 W17       29.84F
WINDOM         SUNNY     81  54  39 W20G25    29.81F
WORTHINGTON    SUNNY     81  54  39 W20G28    29.85F
JACKSON        MOSUNNY   81  50  34 W14G23    29.83F
TRACY          SUNNY     82  53  37 W14G28    29.79F
SLAYTON        SUNNY     79  49  34 W21G29    29.82F
$$
MNZ065>067-074>077-082>085-091>093-202200-
   South Central Minnesota

CITY           SKY/WX    TMP DP  RH WIND       PRES   REMARKS
MANKATO        MOSUNNY   79  54  41 W14       29.77F
NEW ULM        SUNNY     79  57  47 W12       29.76F
ST JAMES       MOSUNNY   81  52  36 W16       29.79F
FAIRMONT       SUNNY     81  46  30 W15       29.80F
GLENCOE        SUNNY     78  50  36 W15       29.75F
FARIBAULT      SUNNY     81  45  28 W10G17    29.78F
OWATONNA       SUNNY     77  52  41 W14       29.79F
WASECA         SUNNY     77  46  33 W14       29.80F
ALBERT LEA     SUNNY     79  54  41 W12G21    29.80F
$$
MNZ078>079-086>088-094>096-202200-
   Southeast Minnesota

CITY           SKY/WX    TMP DP  RH WIND       PRES   REMARKS
ROCHESTER      SUNNY     76  54  46 W12       29.80F
RED WING       SUNNY     79  52  38 NW8       29.73F
STANTON        MOSUNNY   77  52  42 W10G17    29.75F
DODGE CENTER   SUNNY     75  55  50 W12G18    29.79F
WINONA         MOSUNNY   77  55  47 NW15      29.76S
AUSTIN         SUNNY     75  55  50 W13G20    29.80F
PRESTON        SUNNY     74  61  64 W14G21    29.80F
$$
ABBREVIATIONS USED IN REMARKS
   TC - TEMPERATURES IN CELSIUS
  WCI - WIND CHILL INDEX
   HX - HEAT INDEX
  VSB - VISIBILITY
$$



USA.gov is the U.S. government's official web portal to all federal, state and local government web resources and services.